sat.trackr.live / text

‹ back to catalog

STARLINK-34899

NORAD 65323 · 2025-189A

PAYLOAD ACTIVE UNKNOWN

§ Identity

Operator
Country
US
Launch date
2025-08-27
Launch site
AFETR
Launch vehicle
Mass (kg)
RCS (m²)

Purposes: comms

External: N2YO · Heavens-Above · Gunter

§ Orbital elements

Epoch: 2026-09-20T13:11:00.939552Z

Period
94.01 min
Inclination
53.1599°
Eccentricity
0.0000923
Mean motion
15.31708638 rev/d
Perigee alt
470.1 km
Apogee alt
471.3 km
Semi-major
6,848.9 km
B*
2.1427e-4
RAAN
19.9959°
Arg perigee
67.9944°
Mean anomaly
292.1156°
Rev number
6,096

§ Raw data

STARLINK-348991 65323U 25189A   26263.54931643  .00006291  00000+0  21427-3 0  99942 65323  53.1599  19.9959 0000923  67.9944 292.1156 15.31708638 60967

JSON: /api/v1/satellites/65323 · /tle

For live sub-satellite position, see the globe view (requires WebGL).

§ Visibility from observer

Set your observer location to see the next 7 days of passes ≥ 10°. The values pass through the URL so the page stays shareable.

No JS? Fill the form by hand. The geolocation button needs JavaScript.